SCP
-0 -0 -0 -0 0 0 -0 0 0 -0 0 0 0 0 0 0 0 -0 -0 0 -0 0 0 -0 0 0 0 0 0 0 0 0 0 0 0 0 0 0 0 0 0 0 0 0
0 -0 -0 -0 0 0 0 0 0 -0 0 0 0 0 0 -0 -0 0 -0 -0 -0 0 0 0 0 0 0 0 0 0 0 0 0 0 0 0 0 0 0 0 0 0 0 0
-0 0 0 -0 -0 -0 0 0 0 0 0 0 0 0 0 -0 -0 -0 0 0 0 0 0 0 0 0 0 0 0 0 0 0 0 0 0 0 0 0 0 0 0 0 0 0
-0 -0 0 0 0 0 0 0 0 0 0 0 0 -0 0 0 -0 0 0 -0 -0 0 0 0 0 0 0 0 0 0 0 0 0 0 0 0 0 0 0 0 0 0 0 0
0 0 0 0 0 0 0 0 0 0 0 0 0 0 0 0 -0 0 0 -0 -0 0 0 0 0 0 0 0 0 0 0 0 0 0 0 0 0 0 0 0 0 0 0 0
0 0 0 0 0 -0 0 0 0 0 0 0 -0 0 0 0 0 0 0 0 -0 -0 0 0 0 0 0 0 0 0 0 0 0 0 0 0 0 0 0 0 0 0 0 0
0 0 -0 0 0 -0 0 0 0 0 0 0 -0 0 0 0 -0 0 0 -0 -0 0 0 0 0 0 0 0 0 0 0 0 0 0 0 0 0 0 0 0 0 0 0 0
0 0 0 -0 0 0 0 0 0 0 0 0 0 0 0 0 0 0 0 -0 -0 0 0 0 0 0 0 0 0 0 0 0 0 0 0 0 0 0 0 0 0 0 0 0
0 0 0 -0 -0 0 0 0 0 0 0 0 0 0 0 -0 0 0 0 -0 0 0 0 0 0 0 0 0 0 0 0 0 0 0 0 0 0 0 0 0 0 0 0 0
0 0 0 0 0 0 0 0 0 0 0 0 0 0 0 0 0 0 0 0 0 0 0 0 0 1 0 0 0 0 0 0 0 0 0 0 0 0 0 0 0 0 0 0
0 0 0 0 0 0 0 0 0 0 0 0 0 0 0 0 0 0 0 0 0 0 0 0 0 1 1 0 0 0 0 0 0 0 0 0 0 0 0 0 0 0 0 0
0 0 0 0 0 -0 0 0 0 0 0 0 0 0 0 0 0 0 0 0 0 0 0 0 0 0 0 1 0 0 0 0 -0 0 0 0 0 0 0 0 0 0 0 0
0 0 0 0 0 0 0 0 0 0 0 0 0 0 0 0 0 0 0 0 0 0 0 0 0 0 0 0 1 0 0 0 0 -0 0 0 0 0 0 0 0 0 0 0
0 0 0 0 0 0 0 0 -0 0 0 0 0 0 0 0 0 0 0 0 0 0 0 0 0 0 0 0 0 1 0 0 0 0 -0 0 0 0 0 0 0 -0 -0 0
0 0 0 0 0 0 0 0 0 0 0 0 0 0 0 0 0 0 0 0 0 0 0 0 0 0 0 0 0 0 0 0 0 0 0 0 -0 -0 -0 0 0 0 0 0
0 0 0 0 0 0 0 0 0 0 0 0 0 0 0 0 0 0 0 0 0 0 0 0 0 0 0 0 0 0 0 0 0 0 0 0 0 0 0 0 0 0 0 0
0 0 0 0 0 0 0 0 0 0 0 0 0 0 0 0 0 0 0 0 0 0 0 0 0 0 0 0 0 0 0 0 0 0 0 0 0 0 0 0 0 0 0 0
0 0 0 0 0 0 0 0 0 0 0 0 0 0 0 0 0 0 0 0 0 0 0 0 0 0 0 0 0 0 0 0 0 0 0 0 0 0 0 0 0 0 0 0
0 0 0 0 0 0 0 0 0 0 0 0 0 0 0 0 0 0 0 0 0 0 0 0 0 0 0 0 0 0 0 0 0 0 0 0 0 0 0 0 0 0 0 0
0 0 0 0 0 0 0 0 0 0 0 0 0 0 0 0 0 0 0 0 0 0 0 0 0 0 0 0 0 0 0 0 0 0 0 0 0 0 0 0 -0 0 0 0
0 0 0 0 0 0 0 0 0 0 0 0 0 0 0 0 0 0 0 0 0 0 0 0 0 0 0 0 0 0 0 0 0 0 -0 -0 0 0 0 0 0 0 0 0
0 0 0 0 0 0 0 0 0 0 0 0 0 0 0 0 0 0 0 0 1 1 0 0 0 0 0 0 0 0 0 0 -0 -0 -0 0 0 0 0 0 0 0 0 0
0 0 0 0 0 0 0 0 0 0 0 0 0 0 0 0 0 0 0 0 1 0 0 0 0 0 0 0 0 0 0 0 0 0 0 0 0 0 0 0 0 0 0 0
0 0 0 0 0 0 0 0 0 0 0 0 0 0 0 0 0 0 0 0 0 0 0 0 0 0 0 0 0 0 0 0 0 0 0 0 0 0 0 0 0 0 0 0
0 0 0 0 0 0 0 0 0 0 0 0 0 0 0 0 0 0 0 0 0 0 0 0 0 0 0 0 0 0 0 0 0 0 0 0 0 0 0 0 0 0 0 0
0 0 0 0 0 0 0 0 0 0 0 0 0 0 0 0 0 0 0 0 0 0 0 0 0 0 0 0 0 0 0 0 0 0 0 0 0 0 0 0 0 0 0 0
Wind_Speed_500mb
10 12 11 17 11 13 6 7 11 3 2 11 9 5 14 42 36 32 28 25 31 43 36 37 34 33 52 55 56 48 36 25 21 23 26 24 20 17 14 10 12 13 12 15
12 3 8 15 10 8 6 18 5 4 1 8 9 8 11 20 12 22 36 25 34 44 23 32 28 23 40 50 57 48 35 26 23 24 25 24 22 17 16 16 14 19 15 14
6 15 13 8 14 12 3 9 14 13 8 9 10 9 13 7 22 38 33 19 24 24 13 12 9 9 21 42 52 47 36 29 26 25 31 28 27 24 18 16 15 11 10 10
8 9 7 13 5 8 5 10 14 28 7 8 6 5 8 9 15 16 33 17 26 11 10 10 3 10 17 22 44 41 38 35 29 30 33 30 27 22 18 16 10 11 9 8
11 11 15 12 12 4 10 16 14 11 10 10 3 9 13 4 14 21 30 30 27 25 20 14 6 12 18 6 30 40 39 37 34 34 34 32 30 27 22 18 14 13 14 15
12 11 6 10 13 5 21 15 12 8 7 8 8 7 11 5 12 13 23 29 33 31 20 18 12 11 11 6 21 34 37 37 35 37 37 38 32 27 23 19 19 17 18 15
14 8 10 7 12 15 19 11 5 6 9 7 9 4 15 13 18 19 23 38 40 27 24 28 24 6 11 10 15 27 32 32 31 36 38 39 36 31 27 24 24 21 18 17
1 14 3 10 5 4 4 4 10 8 8 8 6 7 12 10 24 31 36 45 52 48 36 43 38 24 17 11 13 17 21 24 29 30 30 35 38 38 30 28 27 25 24 16
8 10 9 7 2 6 2 6 8 13 6 6 6 11 19 9 17 34 48 51 55 47 47 48 53 41 33 20 18 13 21 22 26 26 25 30 36 37 34 29 26 24 24 22
10 4 6 9 2 11 4 7 5 7 7 4 7 9 11 11 19 18 28 45 51 45 46 60 61 53 46 36 28 23 27 35 31 29 25 24 30 32 28 32 29 22 18 17
10 7 11 5 5 3 6 5 12 9 7 9 4 12 12 15 13 17 29 42 39 30 48 45 55 54 50 42 41 41 40 41 41 32 31 26 24 31 30 31 30 25 23 22
9 10 2 3 13 5 6 9 10 9 5 4 7 10 7 11 8 17 40 41 38 41 47 44 48 50 55 55 55 58 60 39 56 32 24 25 25 22 14 20 28 29 26 21
11 5 5 16 13 11 6 2 7 9 7 6 10 10 10 13 24 37 34 43 32 26 29 32 34 46 57 60 71 57 33 69 23 34 31 38 38 24 20 19 25 23 17 14
11 6 11 11 12 6 6 12 8 8 7 10 9 5 8 11 10 30 37 34 26 21 21 21 24 30 36 44 45 41 42 28 34 32 45 32 36 28 21 14 15 15 12 20
9 7 3 5 2 5 6 3 10 7 8 8 8 5 8 7 8 13 15 21 21 21 25 29 29 39 50 43 23 22 13 14 18 21 29 32 25 31 29 26 21 23 25 26
7 5 6 4 7 9 6 7 2 5 7 12 14 4 3 8 5 6 15 16 23 28 31 35 37 45 47 31 28 26 28 29 25 13 20 35 37 34 34 33 32 28 28 29
6 6 5 4 6 8 6 10 5 4 4 14 10 8 4 2 4 7 8 17 24 25 28 33 33 30 22 28 22 25 15 11 13 17 30 28 24 26 29 31 35 27 29 27
8 7 5 5 7 4 10 7 4 3 8 10 14 9 11 16 9 5 8 20 24 20 26 28 22 24 29 30 25 13 18 22 20 25 15 8 8 7 8 12 14 16 20 20
5 9 5 7 4 9 1 6 9 8 8 8 15 16 20 13 6 6 15 17 15 21 21 24 20 27 30 30 12 16 24 16 15 21 14 20 26 9 11 12 14 16 18 22
9 11 9 4 6 9 11 5 6 8 7 24 23 23 17 11 4 8 15 15 19 19 23 26 21 26 30 23 20 22 30 21 20 18 19 12 4 10 21 19 22 21 22 26
3 3 11 6 7 13 12 25 15 7 13 35 29 24 24 9 7 3 7 14 15 16 20 25 26 29 18 19 20 23 19 12 15 12 7 1 4 14 12 21 19 17 21 26
13 11 7 6 4 13 16 15 15 12 13 32 24 19 14 9 6 4 7 10 12 16 22 21 27 26 17 18 16 17 6 6 8 5 4 8 15 17 20 24 24 20 21 23
4 10 9 14 11 7 37 11 28 15 32 31 23 17 17 16 7 3 1 4 8 13 16 18 24 24 20 13 17 6 5 8 7 9 13 21 23 21 22 25 25 23 26 31
4 3 6 3 7 9 18 27 19 26 26 23 23 26 22 13 10 8 4 1 8 16 18 17 19 17 15 14 15 9 10 15 18 21 24 23 26 25 26 30 26 29 31 35
4 3 4 6 16 13 13 28 35 36 26 25 27 27 20 18 16 7 6 11 12 14 15 16 13 15 17 16 15 10 11 20 19 23 30 32 31 29 24 23 24 29 33 37
16 12 9 11 21 14 20 34 37 34 31 28 38 31 29 19 13 10 8 10 10 13 13 13 14 18 25 20 14 11 14 16 22 31 31 28 25 24 21 25 29 24 32 36
Wind_Direction_500mb
356 42 352 299 248 202 235 124 110 285 349 56 358 90 322 325 332 334 336 316 333 337 338 347 344 276 241 227 219 215 213 222 243 240 230 230 227 217 220 242 254 283 292 312
6 322 260 278 28 83 116 112 115 6 65 86 340 338 278 2 322 292 308 311 329 322 327 344 338 312 251 235 218 216 218 241 258 245 231 225 221 226 234 242 260 262 273 301
160 261 317 35 349 71 265 154 181 151 119 67 134 311 349 343 339 309 288 284 320 338 332 333 357 313 268 238 224 223 231 243 249 246 224 224 231 230 238 254 268 264 273 291
236 290 326 342 282 148 306 202 149 138 111 167 174 247 296 281 313 295 267 298 9 341 277 260 161 26 341 273 236 226 234 248 247 243 224 226 225 229 241 247 261 251 242 241
262 306 327 332 260 167 209 94 104 168 112 105 347 75 272 23 277 278 285 314 320 338 261 254 185 24 9 288 243 235 239 245 250 237 223 225 225 233 235 235 234 244 235 248
232 279 231 233 286 249 143 89 76 53 81 59 303 116 284 280 246 287 304 305 313 330 262 248 220 353 338 271 230 233 244 251 252 226 227 227 231 232 234 234 239 243 245 269
326 295 289 275 355 76 39 76 11 1 29 218 279 80 241 250 244 243 279 305 301 296 275 257 245 270 303 267 234 238 247 254 233 225 233 233 235 238 239 243 250 243 248 271
217 335 6 323 182 227 74 173 148 212 164 209 331 237 251 269 291 266 273 286 290 269 273 266 252 244 270 233 231 242 247 239 225 228 235 232 235 241 241 236 236 244 252 262
172 271 306 226 185 143 261 43 162 107 39 84 261 284 312 221 292 277 278 284 276 263 264 264 249 249 250 242 252 239 233 229 224 226 219 229 234 235 237 240 245 255 251 261
209 292 245 289 70 32 121 140 61 25 139 156 291 267 240 299 277 286 275 279 273 275 274 267 247 246 248 242 227 222 238 233 228 211 216 245 246 231 230 243 243 253 251 247
138 116 290 8 2 241 352 26 48 109 113 145 174 266 217 240 263 281 290 296 294 292 305 284 245 251 254 256 241 241 238 244 231 231 223 252 279 250 247 250 244 243 242 246
170 148 173 248 309 251 155 169 145 113 211 122 146 274 263 242 244 288 291 301 291 296 303 275 255 257 262 267 264 254 255 229 261 247 263 267 278 249 268 264 248 250 251 252
184 31 37 351 348 354 22 337 102 108 97 185 137 261 331 319 311 327 324 327 335 342 343 316 271 277 282 288 278 272 286 13 294 296 275 271 274 252 253 267 253 241 235 232
94 98 153 170 212 209 1 326 161 127 117 174 213 264 333 2 354 360 25 34 55 37 20 1 347 359 351 331 300 270 275 293 274 239 256 253 261 264 244 243 239 213 214 248
94 136 195 167 279 104 128 335 338 131 168 131 189 102 333 8 41 346 20 31 46 33 13 359 353 352 349 342 316 288 283 342 316 273 228 233 239 254 236 223 224 234 239 252
6 174 180 182 357 156 94 313 47 47 107 80 112 92 348 45 90 38 48 32 18 4 0 347 351 352 354 21 359 320 314 330 304 280 276 253 254 248 246 244 242 256 257 268
81 111 76 272 332 86 332 248 257 272 84 136 140 193 139 35 97 45 35 13 359 355 354 354 354 356 2 359 358 334 323 357 322 274 282 275 267 260 254 261 264 264 270 277
122 99 83 217 33 342 256 279 279 130 85 122 111 155 193 198 230 42 27 5 353 355 355 2 353 347 342 352 350 8 10 349 330 333 302 245 254 233 304 311 297 289 281 276
115 121 91 124 168 283 142 206 186 155 216 199 150 170 176 165 107 21 1 347 347 352 358 2 357 347 348 345 360 358 348 15 40 22 244 281 305 337 37 7 322 290 289 301
66 77 108 94 158 227 244 180 161 78 274 200 178 180 147 137 72 258 347 3 348 351 2 6 359 356 356 2 348 348 347 7 9 354 341 346 41 10 346 336 335 312 307 304
64 29 174 144 215 285 222 175 149 146 237 174 188 164 160 170 174 332 43 13 2 3 13 5 360 5 11 5 346 342 355 1 345 352 16 356 341 330 344 329 324 316 310 313
180 152 197 108 133 266 156 136 173 210 170 173 187 179 148 142 124 92 6 4 6 4 9 17 13 12 10 356 349 348 5 337 332 347 352 321 315 311 313 328 330 319 320 324
229 181 188 176 215 219 196 234 216 233 180 182 196 190 179 166 184 224 102 35 356 1 3 5 2 359 2 350 348 1 14 345 313 327 327 322 317 309 302 311 310 307 310 307
304 152 143 97 247 262 227 214 216 189 193 193 203 194 183 204 216 223 199 345 355 355 346 350 356 12 12 352 349 341 340 344 333 323 324 327 323 315 308 307 304 306 312 313
212 43 134 273 283 298 209 193 192 188 203 203 191 188 200 214 196 229 295 312 329 344 346 351 3 9 1 352 346 329 318 332 337 338 336 331 325 324 322 325 320 312 316 318
192 183 163 226 229 201 217 210 196 206 218 235 200 192 196 206 232 226 256 296 313 336 350 356 5 5 8 342 323 311 320 337 344 344 342 342 336 335 331 325 321 315 318 317
Wind_Speed_850mb
10 12 11 17 11 13 6 7 11 3 2 11 9 5 14 42 36 32 28 25 31 43 36 37 34 33 52 55 56 48 36 25 21 23 26 24 20 17 14 10 12 13 12 15
12 3 8 15 10 8 6 18 5 4 1 8 9 8 11 20 12 22 36 25 34 44 23 32 28 23 40 50 57 48 35 26 23 24 25 24 22 17 16 16 14 19 15 14
6 15 13 8 14 12 3 9 14 13 8 9 10 9 13 7 22 38 33 19 24 24 13 12 9 9 21 42 52 47 36 29 26 25 31 28 27 24 18 16 15 11 10 10
8 9 7 13 5 8 5 10 14 28 7 8 6 5 8 9 15 16 33 17 26 11 10 10 3 10 17 22 44 41 38 35 29 30 33 30 27 22 18 16 10 11 9 8
11 11 15 12 12 4 10 16 14 11 10 10 3 9 13 4 14 21 30 30 27 25 20 14 6 12 18 6 30 40 39 37 34 34 34 32 30 27 22 18 14 13 14 15
12 11 6 10 13 5 21 15 12 8 7 8 8 7 11 5 12 13 23 29 33 31 20 18 12 11 11 6 21 34 37 37 35 37 37 38 32 27 23 19 19 17 18 15
14 8 10 7 12 15 19 11 5 6 9 7 9 4 15 13 18 19 23 38 40 27 24 28 24 6 11 10 15 27 32 32 31 36 38 39 36 31 27 24 24 21 18 17
1 14 3 10 5 4 4 4 10 8 8 8 6 7 12 10 24 31 36 45 52 48 36 43 38 24 17 11 13 17 21 24 29 30 30 35 38 38 30 28 27 25 24 16
8 10 9 7 2 6 2 6 8 13 6 6 6 11 19 9 17 34 48 51 55 47 47 48 53 41 33 20 18 13 21 22 26 26 25 30 36 37 34 29 26 24 24 22
10 4 6 9 2 11 4 7 5 7 7 4 7 9 11 11 19 18 28 45 51 45 46 60 61 53 46 36 28 23 27 35 31 29 25 24 30 32 28 32 29 22 18 17
10 7 11 5 5 3 6 5 12 9 7 9 4 12 12 15 13 17 29 42 39 30 48 45 55 54 50 42 41 41 40 41 41 32 31 26 24 31 30 31 30 25 23 22
9 10 2 3 13 5 6 9 10 9 5 4 7 10 7 11 8 17 40 41 38 41 47 44 48 50 55 55 55 58 60 39 56 32 24 25 25 22 14 20 28 29 26 21
11 5 5 16 13 11 6 2 7 9 7 6 10 10 10 13 24 37 34 43 32 26 29 32 34 46 57 60 71 57 33 69 23 34 31 38 38 24 20 19 25 23 17 14
11 6 11 11 12 6 6 12 8 8 7 10 9 5 8 11 10 30 37 34 26 21 21 21 24 30 36 44 45 41 42 28 34 32 45 32 36 28 21 14 15 15 12 20
9 7 3 5 2 5 6 3 10 7 8 8 8 5 8 7 8 13 15 21 21 21 25 29 29 39 50 43 23 22 13 14 18 21 29 32 25 31 29 26 21 23 25 26
7 5 6 4 7 9 6 7 2 5 7 12 14 4 3 8 5 6 15 16 23 28 31 35 37 45 47 31 28 26 28 29 25 13 20 35 37 34 34 33 32 28 28 29
6 6 5 4 6 8 6 10 5 4 4 14 10 8 4 2 4 7 8 17 24 25 28 33 33 30 22 28 22 25 15 11 13 17 30 28 24 26 29 31 35 27 29 27
8 7 5 5 7 4 10 7 4 3 8 10 14 9 11 16 9 5 8 20 24 20 26 28 22 24 29 30 25 13 18 22 20 25 15 8 8 7 8 12 14 16 20 20
5 9 5 7 4 9 1 6 9 8 8 8 15 16 20 13 6 6 15 17 15 21 21 24 20 27 30 30 12 16 24 16 15 21 14 20 26 9 11 12 14 16 18 22
9 11 9 4 6 9 11 5 6 8 7 24 23 23 17 11 4 8 15 15 19 19 23 26 21 26 30 23 20 22 30 21 20 18 19 12 4 10 21 19 22 21 22 26
3 3 11 6 7 13 12 25 15 7 13 35 29 24 24 9 7 3 7 14 15 16 20 25 26 29 18 19 20 23 19 12 15 12 7 1 4 14 12 21 19 17 21 26
13 11 7 6 4 13 16 15 15 12 13 32 24 19 14 9 6 4 7 10 12 16 22 21 27 26 17 18 16 17 6 6 8 5 4 8 15 17 20 24 24 20 21 23
4 10 9 14 11 7 37 11 28 15 32 31 23 17 17 16 7 3 1 4 8 13 16 18 24 24 20 13 17 6 5 8 7 9 13 21 23 21 22 25 25 23 26 31
4 3 6 3 7 9 18 27 19 26 26 23 23 26 22 13 10 8 4 1 8 16 18 17 19 17 15 14 15 9 10 15 18 21 24 23 26 25 26 30 26 29 31 35
4 3 4 6 16 13 13 28 35 36 26 25 27 27 20 18 16 7 6 11 12 14 15 16 13 15 17 16 15 10 11 20 19 23 30 32 31 29 24 23 24 29 33 37
16 12 9 11 21 14 20 34 37 34 31 28 38 31 29 19 13 10 8 10 10 13 13 13 14 18 25 20 14 11 14 16 22 31 31 28 25 24 21 25 29 24 32 36
Wind_Direction_850mb
356 42 352 299 248 202 235 124 110 285 349 56 358 90 322 325 332 334 336 316 333 337 338 347 344 276 241 227 219 215 213 222 243 240 230 230 227 217 220 242 254 283 292 312
6 322 260 278 28 83 116 112 115 6 65 86 340 338 278 2 322 292 308 311 329 322 327 344 338 312 251 235 218 216 218 241 258 245 231 225 221 226 234 242 260 262 273 301
160 261 317 35 349 71 265 154 181 151 119 67 134 311 349 343 339 309 288 284 320 338 332 333 357 313 268 238 224 223 231 243 249 246 224 224 231 230 238 254 268 264 273 291
236 290 326 342 282 148 306 202 149 138 111 167 174 247 296 281 313 295 267 298 9 341 277 260 161 26 341 273 236 226 234 248 247 243 224 226 225 229 241 247 261 251 242 241
262 306 327 332 260 167 209 94 104 168 112 105 347 75 272 23 277 278 285 314 320 338 261 254 185 24 9 288 243 235 239 245 250 237 223 225 225 233 235 235 234 244 235 248
232 279 231 233 286 249 143 89 76 53 81 59 303 116 284 280 246 287 304 305 313 330 262 248 220 353 338 271 230 233 244 251 252 226 227 227 231 232 234 234 239 243 245 269
326 295 289 275 355 76 39 76 11 1 29 218 279 80 241 250 244 243 279 305 301 296 275 257 245 270 303 267 234 238 247 254 233 225 233 233 235 238 239 243 250 243 248 271
217 335 6 323 182 227 74 173 148 212 164 209 331 237 251 269 291 266 273 286 290 269 273 266 252 244 270 233 231 242 247 239 225 228 235 232 235 241 241 236 236 244 252 262
172 271 306 226 185 143 261 43 162 107 39 84 261 284 312 221 292 277 278 284 276 263 264 264 249 249 250 242 252 239 233 229 224 226 219 229 234 235 237 240 245 255 251 261
209 292 245 289 70 32 121 140 61 25 139 156 291 267 240 299 277 286 275 279 273 275 274 267 247 246 248 242 227 222 238 233 228 211 216 245 246 231 230 243 243 253 251 247
138 116 290 8 2 241 352 26 48 109 113 145 174 266 217 240 263 281 290 296 294 292 305 284 245 251 254 256 241 241 238 244 231 231 223 252 279 250 247 250 244 243 242 246
170 148 173 248 309 251 155 169 145 113 211 122 146 274 263 242 244 288 291 301 291 296 303 275 255 257 262 267 264 254 255 229 261 247 263 267 278 249 268 264 248 250 251 252
184 31 37 351 348 354 22 337 102 108 97 185 137 261 331 319 311 327 324 327 335 342 343 316 271 277 282 288 278 272 286 13 294 296 275 271 274 252 253 267 253 241 235 232
94 98 153 170 212 209 1 326 161 127 117 174 213 264 333 2 354 360 25 34 55 37 20 1 347 359 351 331 300 270 275 293 274 239 256 253 261 264 244 243 239 213 214 248
94 136 195 167 279 104 128 335 338 131 168 131 189 102 333 8 41 346 20 31 46 33 13 359 353 352 349 342 316 288 283 342 316 273 228 233 239 254 236 223 224 234 239 252
6 174 180 182 357 156 94 313 47 47 107 80 112 92 348 45 90 38 48 32 18 4 0 347 351 352 354 21 359 320 314 330 304 280 276 253 254 248 246 244 242 256 257 268
81 111 76 272 332 86 332 248 257 272 84 136 140 193 139 35 97 45 35 13 359 355 354 354 354 356 2 359 358 334 323 357 322 274 282 275 267 260 254 261 264 264 270 277
122 99 83 217 33 342 256 279 279 130 85 122 111 155 193 198 230 42 27 5 353 355 355 2 353 347 342 352 350 8 10 349 330 333 302 245 254 233 304 311 297 289 281 276
115 121 91 124 168 283 142 206 186 155 216 199 150 170 176 165 107 21 1 347 347 352 358 2 357 347 348 345 360 358 348 15 40 22 244 281 305 337 37 7 322 290 289 301
66 77 108 94 158 227 244 180 161 78 274 200 178 180 147 137 72 258 347 3 348 351 2 6 359 356 356 2 348 348 347 7 9 354 341 346 41 10 346 336 335 312 307 304
64 29 174 144 215 285 222 175 149 146 237 174 188 164 160 170 174 332 43 13 2 3 13 5 360 5 11 5 346 342 355 1 345 352 16 356 341 330 344 329 324 316 310 313
180 152 197 108 133 266 156 136 173 210 170 173 187 179 148 142 124 92 6 4 6 4 9 17 13 12 10 356 349 348 5 337 332 347 352 321 315 311 313 328 330 319 320 324
229 181 188 176 215 219 196 234 216 233 180 182 196 190 179 166 184 224 102 35 356 1 3 5 2 359 2 350 348 1 14 345 313 327 327 322 317 309 302 311 310 307 310 307
304 152 143 97 247 262 227 214 216 189 193 193 203 194 183 204 216 223 199 345 355 355 346 350 356 12 12 352 349 341 340 344 333 323 324 327 323 315 308 307 304 306 312 313
212 43 134 273 283 298 209 193 192 188 203 203 191 188 200 214 196 229 295 312 329 344 346 351 3 9 1 352 346 329 318 332 337 338 336 331 325 324 322 325 320 312 316 318
192 183 163 226 229 201 217 210 196 206 218 235 200 192 196 206 232 226 256 296 313 336 350 356 5 5 8 342 323 311 320 337 344 344 342 342 336 335 331 325 321 315 318 317